This is the latest recevied weather packets stored in our database for station/object K7SPS-10. If no packets are shown the sender has not sent any weather packets the latest 10 day(s).
| Time | Temp. | Humidity | Pressure | Rain* | Wind** | Luminosity | Snow |
|---|---|---|---|---|---|---|---|
| 1777766972 | 25.56° C | 23% | 1013 hPa | 0 mm | - | 279 W/m² | - |
| 1777766669 | 26.11° C | 23% | 1013.1 hPa | 0 mm | - | 232 W/m² | - |
| 1777766366 | 26.11° C | 25% | 1013.3 hPa | 0 mm | - | 291 W/m² | - |
| 1777766063 | 26.67° C | 25% | 1013.2 hPa | 0 mm | - | 293 W/m² | - |
| 1777765760 | 27.22° C | 27% | 1013.2 hPa | 0 mm | - | 402 W/m² | - |
| 1777765457 | 26.67° C | 25% | 1013.2 hPa | 0 mm | - | 424 W/m² | - |
| 1777765154 | 26.67° C | 26% | 1013.3 hPa | 0 mm | - | 440 W/m² | - |
| 1777764849 | 26.11° C | 28% | 1013.2 hPa | 0 mm | - | 339 W/m² | - |
| 1777764547 | 26.11° C | 28% | 1013.4 hPa | 0 mm | - | 353 W/m² | - |
| 1777764243 | 26.11° C | 28% | 1013.4 hPa | 0 mm | - | 431 W/m² | - |
| 1777763940 | 25.56° C | 30% | 1013.5 hPa | 0 mm | - | 427 W/m² | - |
| 1777763637 | 25° C | 31% | 1013.5 hPa | 0 mm | - | 234 W/m² | - |
| 1777763335 | 25.56° C | 28% | 1013.6 hPa | 0 mm | - | 243 W/m² | - |
| 1777763033 | 26.11° C | 25% | 1013.6 hPa | 0 mm | - | 262 W/m² | - |
| 1777762730 | 26.11° C | 26% | 1013.9 hPa | 0 mm | - | 332 W/m² | - |
| 1777762426 | 25.56° C | 28% | 1013.9 hPa | 0 mm | - | 361 W/m² | - |
| 1777762124 | 25.56° C | 27% | 1014 hPa | 0 mm | - | 524 W/m² | - |
| 1777761819 | 26.67° C | 28% | 1014 hPa | 0 mm | - | 526 W/m² | - |
| 1777761517 | 26.11° C | 30% | 1014.3 hPa | 0 mm | - | 547 W/m² | - |
| 1777761215 | 25.56° C | 28% | 1014.2 hPa | 0 mm | - | 593 W/m² | - |
| 1777760912 | 25.56° C | 28% | 1014.4 hPa | 0 mm | - | 361 W/m² | - |
| 1777760610 | 25.56° C | 27% | 1014.4 hPa | 0 mm | - | 576 W/m² | - |
| 1777760305 | 26.11° C | 30% | 1014.4 hPa | 0 mm | - | 536 W/m² | - |
| 1777760002 | 26.11° C | 30% | 1014.4 hPa | 0 mm | - | 508 W/m² | - |
| 1777759700 | 25° C | 27% | 1014.4 hPa | 0 mm | - | 445 W/m² | - |
* Rain latest hour (hover to see other rain measurements)
** Current wind speed in m/s (hover to see current wind gust speed)